{"data":{"norad_id":52117,"epoch":"2026-09-19T01:18:37.954080Z","epoch_age_seconds":180659,"freshness":"STALE","line1":"1 52117U 22029AF  26262.05460595 -.00000390  00000+0 -40369-6 0  9994","line2":"2 52117  53.1604 276.1224 0001181  83.8673 276.2464 15.34388051250193","mean_motion":15.34388051,"eccentricity":0.0001181,"inclination_deg":53.1604,"raan_deg":276.1224,"arg_perigee_deg":83.8673,"mean_anomaly_deg":276.2464,"bstar":-4.0369e-7,"rev_number":25019,"period_min":93.848488917879,"perigee_km":461.93084795701,"apogee_km":463.54666281043,"semimajor_km":6840.8757553837,"source":"CELESTRAK","updated_at":"2026-09-20T09:00:39.989056Z"}}